Dunkirk, NY

3:19 PM EST on February 17, 2018 (GMT -0500)
Chautauqua County-Dunkirk

Weather History for KDKK - May, 2013

Change the Weather History Date:

Thursday, May 2, 2013

  Actual Average Record
Temperature  
Mean Temperature 65 °F -  
Max Temperature 75 °F 63 °F 89 °F (1970)
Min Temperature 55 °F 42 °F 29 °F (1945)
Growing Degree Days 15 (Base 50)    
Moisture  
Dew Point 33 °F    
Average Humidity 31    
Maximum Humidity 62    
Minimum Humidity 22    
Precipitation  
Precipitation 0.00 in - - ()
Sea Level Pressure  
Sea Level Pressure 30.29 in    
Wind  
Wind Speed 10 mph (SE)    
Max Wind Speed 18 mph    
Max Gust Speed 28 mph    
Visibility 10 miles    
Events      
Averages and records for this station are not official NWS values.
T = Trace of Precipitation, MM = Missing Value Source: NWS Daily Summary

Daily Weather History Graph

Daily Weather History Graph

Search for Another Location

Airport or City:

Trip Planner

Search our weather history database for the weather conditions in past years. The results will help you decide how hot, cold, wet, or windy it might be!

Date:

Astronomy

May. 02, 2013 Rise Set
Actual Time 6:10 AM EDT 8:18 PM EDT
Civil Twilight 5:39 AM EDT 8:49 PM EDT
Nautical Twilight 5:01 AM EDT 9:27 PM EDT
Astronomical Twilight 4:20 AM EDT 10:09 PM EDT
Moon 2:05 AM EDT (5/2) 12:57 PM EDT (5/2)
Length of Visible Light 15h 09m
Length of Day
14h 08m
Waning Gibbous, 48% of the Moon is Illuminated
May 2
Waning Gibbous
May 9
New
May 18
First Quarter
May 25
Full
May 31
Last Quarter

Hourly Weather History & Observations

Time (EDT) Temp. Dew Point Humidity Pressure Visibility Wind Dir Wind Speed Gust Speed Precip Events Conditions
12:53 AM 66.0 °F 30.9 °F 27% 30.29 in 10.0 mi South 9.2 mph - N/A   Clear
1:53 AM 64.0 °F 28.9 °F 27% 30.29 in 10.0 mi South 11.5 mph - N/A   Clear
2:53 AM 64.0 °F 28.0 °F 26% 30.28 in 10.0 mi South 12.7 mph - N/A   Clear
3:53 AM 62.1 °F 30.0 °F 30% 30.30 in 10.0 mi South 15.0 mph 21.9 mph N/A   Clear
4:53 AM 61.0 °F 30.0 °F 31% 30.30 in 10.0 mi South 18.4 mph 27.6 mph N/A   Clear
5:53 AM 60.1 °F 30.9 °F 33% 30.31 in 10.0 mi South 16.1 mph 21.9 mph N/A   Clear
6:53 AM 59.0 °F 32.0 °F 36% 30.34 in 10.0 mi Calm Calm - N/A   Clear
7:53 AM 60.1 °F 35.1 °F 39% 30.38 in 10.0 mi South 4.6 mph - N/A   Clear
8:53 AM 62.1 °F 35.1 °F 37% 30.39 in 10.0 mi South 9.2 mph - N/A   Clear
9:53 AM 64.0 °F 33.1 °F 31% 30.39 in 10.0 mi South 6.9 mph - N/A   Clear
10:53 AM 69.1 °F 30.0 °F 23% 30.38 in 10.0 mi SSW 6.9 mph - N/A   Clear
11:53 AM 69.1 °F 34.0 °F 27% 30.36 in 10.0 mi North 8.1 mph - N/A   Clear
12:53 PM 71.1 °F 32.0 °F 24% 30.34 in 10.0 mi NNE 9.2 mph - N/A   Clear
1:53 PM 71.1 °F 33.1 °F 25% 30.32 in 10.0 mi NNE 12.7 mph - N/A   Clear
2:53 PM 72.0 °F 34.0 °F 25% 30.30 in 10.0 mi NNE 11.5 mph - N/A   Clear
3:53 PM 73.9 °F 33.1 °F 22% 30.27 in 10.0 mi NNE 16.1 mph - N/A   Clear
4:53 PM 75.0 °F 37.0 °F 25% 30.25 in 10.0 mi NE 13.8 mph - N/A   Clear
5:53 PM 75.0 °F 34.0 °F 22% 30.23 in 10.0 mi NNE 8.1 mph - N/A   Clear
6:53 PM 73.0 °F 36.0 °F 26% 30.22 in 10.0 mi North 3.5 mph - N/A   Clear
7:53 PM 68.0 °F 39.0 °F 35% 30.22 in 10.0 mi Calm Calm - N/A   Clear
8:53 PM 57.0 °F 41.0 °F 55% 30.22 in 10.0 mi NNW 3.5 mph - N/A   Clear
9:53 PM 55.9 °F 43.0 °F 62% 30.23 in 10.0 mi SE 6.9 mph - N/A   Clear
10:53 PM 64.0 °F 28.0 °F 26% 30.23 in 10.0 mi SSE 8.1 mph - N/A   Clear
11:53 PM 63.0 °F 28.9 °F 28% 30.23 in 10.0 mi SSE 9.2 mph - N/A   Clear